Вернуться в каталог

STARLINK-5993

АктивенСвязьVLEO
NORAD 56449·PAYLOAD·🇺🇸 United States

Запущен May 10, 2023 с Vandenberg Space Force Base

Loading…

Ближайшие Пролёты (ближайшие 24 часа)

TLE

СвежийSource: CelesTrak SupGP

Эпоха: Sep 14, 2026, 21:01 UTC

1 56449C 23064B   26257.87618056  .00005233  00000+0  43857-3 0  2575
2 56449  70.0024  27.6465 0003260 269.2391 302.1639 14.98326990    12

Отслеживайте STARLINK-5993 в реальном времени с AllMySat

Download on the App Store